Location: Unspecified
(42.3650°N, 71.1030°W)
Time: 15:10:30
(UTC+00:00)

Tiros 1 - Pass Details

Date: 01 July 2024
Orbit: 624 x 656 km, 48.4° (Epoch: 13 July)

Event Time Altitude Azimuth Distance (km) Brightness Sun altitude
Rises 00:19:36 0° 207° (SSW) 2,896 10.4 0.0°
Reaches altitude 10° 00:22:11 10° 194° (SSW) 1,989 9.5 -0.4°
Maximum altitude 00:26:00 26° 138° (SE) 1,222 8.1 -1.0°
Drops below altitude 10° 00:29:49 10° 81° (E) 1,993 9.2 -1.5°
Sets 00:32:24 0° 69° (ENE) 2,904 10.2 -1.9°
